Regional Weather Roundup
Issued by NWS Charleston, SC

Current Version | Previous Version | Graphics & Text | Print | Product List | Glossary On
Versions: 1 2 3 4 5 6 7 8 9 10 11 12 13 14 15 16 17 18 19 20 21 22 23 24 25 26 27 28 29 30 31 32 33 34 35 36 37 38 39 40 41 42 43 44 45 46 47 48 49 50
000
ASUS42 KCHS 072327
RWRCHS

REGIONAL WEATHER ROUNDUP
NATIONAL WEATHER SERVICE CHARLESTON SC
600 PM EST SUN FEB 07 2016

NOTE: "FAIR" INDICATES FEW OR NO CLOUDS BELOW 12,000 FEET WITH NO
SIGNIFICANT WEATHER AND/OR OBSTRUCTIONS TO VISIBILITY.

NOT ALL STATIONS ARE QUALITY CONTROLLED BY THE NATIONAL
WEATHER SERVICE. USE DATA WITH CAUTION...ESPECIALLY
DEWPOINT OBSERVATIONS.

NOTICE: OBSERVATIONS FOR THE SAVANNAH-HILTON HEAD INTERNATIONAL AIRPORT
/KSAV/ HAVE BEEN TEMPORARILY REMOVED DUE TO AN ERRONEOUS TEMPERATURE
SENSOR. THE OBSERVATION WILL BE REINTRODUCED ONCE REPAIRS ARE COMPLETE.

SCZ027-030-031-034>040-042>050-080000-
...SOUTHEAST SOUTH CAROLINA...

CITY           SKY/WX    TMP DP  RH WIND       PRES   REMARKS
N CHARLESTON   PTCLDY    44  28  53 NW13      29.89S
WATERFRONT PRK   N/A     46  31  55 N8        29.73S
MOUNT PLEASANT FAIR      39  34  81 NW8       29.88F WCI  34
JOHNS ISLAND   FAIR      45  30  57 NW9       29.89S
PINOPOLIS        N/A     46  34  61 N9        29.80F
MONCKS CORNER  FAIR      43  25  49 NW5       29.88F
SUMMERVILLE    FAIR      45  30  57 NW6       29.92R
BEAUFORT MCAS  PTCLDY    50  27  40 NW9       29.92S
BEAUFORT ARPT  FAIR      48  30  49 NW7       29.91S
HILTON HEAD IS PTCLDY    50  30  46 N8        29.92F
WALTERBORO     CLEAR     46  30  53 NW3       29.93S
ALLENDALE      FAIR      52  28  40 CALM      29.92R

...SOUTHERN MIDLANDS AND PEE DEE...

CITY           SKY/WX    TMP DP  RH WIND       PRES   REMARKS
GEORGETOWN     NOT AVBL
KINGSTREE      NOT AVBL
ORANGEBURG     CLOUDY    50  24  36 N5        29.92S
BARNWELL       FAIR      52  30  43 CALM      29.93R
AIKEN          FAIR      50  25  37 CALM      29.95S
MANNING        CLOUDY    45  25  45 NW8       29.90F
COLUMBIA       MOCLDY    52  23  32 N3        29.92F
SUMTER         PTCLDY    46  23  40 N7        29.88F
FLORENCE       CLOUDY    43  27  53 NW8       29.88F
MYRTLE BEACH   MOCLDY    39  28  65 NW17        N/A  WCI  30
N MYRTLE BEACH LGT RAIN  38  33  82 N12G22    29.79F WCI  30

$$

GAZ063-065-086>088-099>101-113>116-118-119-134>141-150-080000-
...SOUTHEAST GEORGIA...

CITY           SKY/WX    TMP DP  RH WIND       PRES   REMARKS
SAVANNAH ARPT  PTCLDY    52  27  38 NW9       29.93R
HUNTER AAF     CLEAR     51  29  43 W6        29.91R
FORT STEWART   CLEAR     52  28  39 NW5       29.92S
STATESBORO     CLEAR     53  23  31 NW7       29.95R
SYLVANIA       CLEAR     53  33  46 NW6       29.94S
CLAXTON        FAIR      52  33  48 W7        29.95S

...CSRA...CENTRAL AND FAR SOUTHEAST GEORGIA...

CITY           SKY/WX    TMP DP  RH WIND       PRES   REMARKS
THOMSON        CLEAR     53  31  44 W3        29.99S
AUGUSTA-BUSH   CLEAR     52  26  36 W9        29.94R
AUGUSTA-DANIEL CLEAR     55  23  28 W9        29.94S
SWAINSBORO     FAIR      50  30  46 NW5       29.96S
VIDALIA        CLEAR     52  27  37 W3        29.96S
EASTMAN        FAIR      52  25  35 CALM      30.01S
HAZLEHURST     FAIR      53  27  36 NW5       29.97S
ALMA           CLEAR     54  25  32 NW7       29.97F
WAYCROSS       CLEAR     52  32  45 NW5       29.98S
JESUP          FAIR      54  34  47 NW3       29.96S
BAXLEY         FAIR      52  28  40 NW6       29.96F
BRUNSWICK      CLEAR     50  32  50 W3        29.96R
SAINT SIMONS   CLEAR     53  27  36 NW5       29.94F

$$

SCZ027-028-034-036>038-045-046-048>050-GAZ119-141-080000-
...LAKE AND SUPPLEMENTAL COASTAL OBSERVATIONS...

STATION/POSITION TIME  TEMP    WIND        PRES    WAVE   SWELL
                       AIR SEA DIR/SP/G            HT/PER HT/PER/DIR
                 (UTC) (F)     (DEG/KT/KT) (MB)    (FT/S) (FT/S/D)
WINYAH BAY       2245   40                   N/A
LAKE MURRAY      2200   51     350/  2/  6 1012.9F
ACE BASIN NERRS  2200   49     350/  5     1013.0S
FORT PULASKI     2300   52 53  300/  7/  8 1013.4F
SAPELO ISLAND    2300   53     320/  7     1014.0S

$$

ANZ835-935-AMZ111-154-330-350-352-354-370-450-454-472-080000-
...C-MAN AND BUOY OBSERVATIONS...

STATION/POSITION TIME  TEMP    WIND        PRES    WAVE   SWELL
                       AIR SEA DIR/SP/G            HT/PER HT/PER/DIR
                 (UTC) (F)     (DEG/KT/KT) (MB)    (FT/S) (FT/S/D)
BUOY 41004       2250   48 66  330/ 35/ 43 1008.3R  12/ 7   2/17
BUOY 41008       2250   53 56  340/ 16/ 17 1013.6R   5/ 6   3/ 70/13
FOLLY BEACH CMAN 2300   45     330/ 10/ 15 1011.8F
CAPERS NEARSHORE 2208   41     340/ 19/ 25 1011.4R
FRIPP NEARSHORE  2200   50     350/ 21/ 25 1012.3F


STATION/POSITION TIME  TEMP    WIND        PRES    WAVE   SWELL
                       AIR SEA DIR/SP/G            HT/PER HT/PER/DIR
                 (UTC) (F)     (DEG/KT/KT) (MB)    (FT/S) (FT/S/D)
5E ST. MARYS GA  2221      56                N/A     5/12   2/ 80/12
FRYING PAN BUOY  2300   44 67  330/ 41/ 52 1002.4R
BUOY 41025       2250   55 71  360/ 39/ 52  994.8F  17/ 8
CAPE LOOKOUT NC  NOT AVBL
BUOY 41002       2250   62 69  250/ 31/ 39   N/A    12/ 8
BUOY 41010       2220   62 74              1009.9R
ST AUGUSTINE FL  2300   52 57  310/  8/  9 1015.5R


$$



USA.gov is the U.S. government's official web portal to all federal, state and local government web resources and services.